• In Österreich
  • Länderverzeichnis
  • Für 7 Tage
  • Wassertemperatur
  • Satellitenkarten
  • Wetterkarte
  • News
  • Widgets
  • user-avatar
    Anmelden

    Stündliche Wetter Seneckoe

    Heute, 16 Juli, Montag

    Zeit Temperatur Niederschläge Wind Luftdruck Luftfeuchtigkeit
    00:00 +20°C° 0 mm 1 m/S 749 mmHg 95%
    01:00 +19°C° 0 mm 1 m/S 749 mmHg 96%
    02:00 +19°C° 0 mm 1 m/S 749 mmHg 96%
    03:00 +18°C° 0 mm 2 m/S 749 mmHg 96%
    04:00 +18°C° 0 mm 2 m/S 749 mmHg 96%
    05:00 +18°C° 0 mm 2 m/S 749 mmHg 96%
    06:00 +20°C° 0 mm 2 m/S 749 mmHg 91%
    07:00 +21°C° 0 mm 2 m/S 749 mmHg 85%
    08:00 +24°C° 0 mm 3 m/S 750 mmHg 80%
    09:00 +26°C° 0,1 mm 3 m/S 749 mmHg 72%
    10:00 +27°C° 0,1 mm 3 m/S 749 mmHg 64%
    11:00 +29°C° 0,1 mm 4 m/S 749 mmHg 56%
    12:00 +29°C° 0,2 mm 4 m/S 749 mmHg 57%
    13:00 +29°C° 0,2 mm 4 m/S 749 mmHg 59%
    14:00 +29°C° 0,2 mm 4 m/S 748 mmHg 60%
    15:00 +29°C° 0,3 mm 3 m/S 748 mmHg 65%
    16:00 +28°C° 0,3 mm 3 m/S 748 mmHg 69%
    17:00 +27°C° 0,3 mm 2 m/S 748 mmHg 73%
    18:00 +26°C° 0,1 mm 2 m/S 748 mmHg 77%
    19:00 +25°C° 0,1 mm 2 m/S 748 mmHg 80%
    20:00 +23°C° 0,1 mm 2 m/S 748 mmHg 83%
    21:00 +23°C° 0 mm 2 m/S 748 mmHg 84%
    22:00 +21°C° 0 mm 2 m/S 749 mmHg 85%
    23:00 +20°C° 0 mm 2 m/S 749 mmHg 86%

    Morgen, 17 Juli, Dienstag

    Zeit Temperatur Niederschläge Wind Luftdruck Luftfeuchtigkeit
    00:00 +19°C° 0 mm 2 m/S 749 mmHg 86%
    01:00 +19°C° 0 mm 2 m/S 749 mmHg 87%
    02:00 +19°C° 0 mm 2 m/S 748 mmHg 88%
    03:00 +19°C° 0 mm 3 m/S 748 mmHg 88%
    04:00 +19°C° 0 mm 3 m/S 748 mmHg 87%
    05:00 +19°C° 0 mm 3 m/S 748 mmHg 86%
    06:00 +21°C° 0 mm 3 m/S 748 mmHg 80%
    07:00 +23°C° 0 mm 4 m/S 748 mmHg 73%
    08:00 +26°C° 0 mm 4 m/S 748 mmHg 66%
    09:00 +27°C° 0 mm 5 m/S 748 mmHg 61%
    10:00 +28°C° 0 mm 5 m/S 748 mmHg 56%
    11:00 +30°C° 0 mm 5 m/S 747 mmHg 51%
    12:00 +30°C° 0 mm 5 m/S 747 mmHg 50%
    13:00 +30°C° 0 mm 5 m/S 747 mmHg 49%
    14:00 +32°C° 0 mm 5 m/S 746 mmHg 47%
    15:00 +30°C° 0 mm 5 m/S 746 mmHg 49%
    16:00 +30°C° 0 mm 4 m/S 746 mmHg 51%
    17:00 +30°C° 0 mm 4 m/S 746 mmHg 53%
    18:00 +28°C° 0 mm 4 m/S 746 mmHg 59%
    19:00 +27°C° 0 mm 3 m/S 746 mmHg 64%
    20:00 +25°C° 0 mm 3 m/S 746 mmHg 70%
    21:00 +24°C° 0 mm 3 m/S 746 mmHg 72%
    22:00 +24°C° 0 mm 3 m/S 746 mmHg 73%
    23:00 +22°C° 0 mm 3 m/S 746 mmHg 75%

    übermorgen, 18 Juli, Mittwoch

    Zeit Temperatur Niederschläge Wind Luftdruck Luftfeuchtigkeit
    00:00 +22°C° 0 mm 3 m/S 746 mmHg 78%
    01:00 +21°C° 0 mm 3 m/S 746 mmHg 80%
    02:00 +21°C° 0 mm 3 m/S 746 mmHg 83%
    03:00 +21°C° 0,2 mm 3 m/S 746 mmHg 86%
    04:00 +20°C° 0,2 mm 3 m/S 746 mmHg 89%
    05:00 +20°C° 0,2 mm 3 m/S 746 mmHg 92%
    06:00 +21°C° 0 mm 3 m/S 746 mmHg 89%
    07:00 +22°C° 0 mm 3 m/S 746 mmHg 85%
    08:00 +24°C° 0 mm 3 m/S 746 mmHg 82%
    09:00 +26°C° 0,3 mm 4 m/S 746 mmHg 75%
    10:00 +27°C° 0,3 mm 4 m/S 746 mmHg 68%
    11:00 +29°C° 0,3 mm 4 m/S 746 mmHg 61%
    12:00 +30°C° 0,1 mm 4 m/S 746 mmHg 57%
    13:00 +30°C° 0,1 mm 4 m/S 746 mmHg 53%
    14:00 +32°C° 0,1 mm 5 m/S 745 mmHg 48%
    15:00 +32°C° 0 mm 4 m/S 745 mmHg 50%
    16:00 +30°C° 0 mm 4 m/S 746 mmHg 52%
    17:00 +30°C° 0 mm 4 m/S 746 mmHg 54%
    18:00 +28°C° 0,2 mm 3 m/S 746 mmHg 64%
    19:00 +25°C° 0,2 mm 3 m/S 746 mmHg 75%
    20:00 +23°C° 0,2 mm 2 m/S 746 mmHg 86%
    21:00 +21°C° 0 mm 2 m/S 746 mmHg 88%
    22:00 +20°C° 0 mm 2 m/S 746 mmHg 90%
    23:00 +20°C° 0 mm 2 m/S 746 mmHg 93%

    19 Juli, Donnerstag

    Zeit Temperatur Niederschläge Wind Luftdruck Luftfeuchtigkeit
    00:00 +19°C° 0 mm 2 m/S 746 mmHg 94%
    01:00 +19°C° 0 mm 2 m/S 746 mmHg 95%
    02:00 +18°C° 0 mm 2 m/S 746 mmHg 97%
    03:00 +18°C° 0 mm 2 m/S 746 mmHg 96%
    04:00 +18°C° 0 mm 2 m/S 746 mmHg 96%
    05:00 +18°C° 0 mm 3 m/S 746 mmHg 95%
    06:00 +19°C° 0 mm 3 m/S 746 mmHg 90%
    07:00 +20°C° 0 mm 3 m/S 746 mmHg 85%
    08:00 +21°C° 0 mm 3 m/S 746 mmHg 79%
    09:00 +22°C° 0 mm 3 m/S 746 mmHg 78%
    10:00 +22°C° 0 mm 3 m/S 746 mmHg 76%
    11:00 +22°C° 0 mm 3 m/S 746 mmHg 75%
    12:00 +24°C° 0,1 mm 3 m/S 746 mmHg 74%
    13:00 +24°C° 0,1 mm 2 m/S 746 mmHg 73%
    14:00 +25°C° 0,1 mm 2 m/S 746 mmHg 72%
    15:00 +25°C° 0,1 mm 2 m/S 746 mmHg 73%
    16:00 +25°C° 0,1 mm 2 m/S 746 mmHg 74%
    17:00 +25°C° 0,1 mm 2 m/S 746 mmHg 74%
    18:00 +24°C° 0,2 mm 2 m/S 746 mmHg 80%
    19:00 +23°C° 0,2 mm 2 m/S 746 mmHg 86%
    20:00 +22°C° 0,2 mm 1 m/S 746 mmHg 93%
    21:00 +21°C° 0,4 mm 1 m/S 746 mmHg 94%
    22:00 +21°C° 0,4 mm 1 m/S 746 mmHg 96%
    23:00 +20°C° 0,4 mm 1 m/S 746 mmHg 98%

    20 Juli, Freitag

    Zeit Temperatur Niederschläge Wind Luftdruck Luftfeuchtigkeit
    00:00 +20°C° 0,1 mm 1 m/S 746 mmHg 98%
    01:00 +20°C° 0,1 mm 1 m/S 746 mmHg 98%
    02:00 +19°C° 0,1 mm 1 m/S 746 mmHg 98%
    03:00 +20°C° 0 mm 1 m/S 746 mmHg 98%
    04:00 +20°C° 0 mm 1 m/S 747 mmHg 98%
    05:00 +20°C° 0 mm 1 m/S 747 mmHg 98%
    06:00 +21°C° 0 mm 1 m/S 747 mmHg 94%
    07:00 +22°C° 0 mm 1 m/S 747 mmHg 89%
    08:00 +24°C° 0 mm 1 m/S 747 mmHg 84%
    09:00 +25°C° 0,2 mm 1 m/S 746 mmHg 79%
    10:00 +27°C° 0,2 mm 1 m/S 746 mmHg 74%
    11:00 +28°C° 0,2 mm 1 m/S 746 mmHg 69%
    12:00 +28°C° 1,4 mm 1 m/S 746 mmHg 70%
    13:00 +28°C° 1,4 mm 1 m/S 746 mmHg 72%
    14:00 +28°C° 1,4 mm 2 m/S 746 mmHg 74%
    15:00 +28°C° 0,8 mm 1 m/S 746 mmHg 75%
    16:00 +28°C° 0,8 mm 1 m/S 746 mmHg 76%
    17:00 +28°C° 0,8 mm 1 m/S 746 mmHg 77%
    18:00 +26°C° 0,4 mm 1 m/S 746 mmHg 81%
    19:00 +25°C° 0,4 mm 1 m/S 746 mmHg 86%
    20:00 +24°C° 0,4 mm 1 m/S 746 mmHg 91%
    21:00 +23°C° 1,4 mm 1 m/S 746 mmHg 92%
    22:00 +22°C° 1,4 mm 1 m/S 746 mmHg 94%
    23:00 +22°C° 1,4 mm 1 m/S 746 mmHg 96%

    21 Juli, Samstag

    Zeit Temperatur Niederschläge Wind Luftdruck Luftfeuchtigkeit
    00:00 +21°C° 0,2 mm 1 m/S 746 mmHg 96%
    01:00 +21°C° 0,2 mm 1 m/S 746 mmHg 97%
    02:00 +21°C° 0,2 mm 1 m/S 746 mmHg 97%
    03:00 +21°C° 0 mm 1 m/S 746 mmHg 97%
    04:00 +21°C° 0 mm 1 m/S 746 mmHg 97%
    05:00 +21°C° 0 mm 1 m/S 746 mmHg 97%
    06:00 +22°C° 0 mm 1 m/S 746 mmHg 93%
    07:00 +24°C° 0 mm 1 m/S 746 mmHg 88%
    08:00 +25°C° 0 mm 1 m/S 746 mmHg 84%
    09:00 +27°C° 0,8 mm 1 m/S 746 mmHg 80%
    10:00 +28°C° 0,8 mm 1 m/S 746 mmHg 77%
    11:00 +29°C° 0,8 mm 1 m/S 746 mmHg 74%
    12:00 +29°C° 1,3 mm 1 m/S 746 mmHg 74%
    13:00 +29°C° 1,3 mm 1 m/S 746 mmHg 75%
    14:00 +29°C° 1,3 mm 1 m/S 746 mmHg 76%
    15:00 +28°C° 2 mm 2 m/S 746 mmHg 80%
    16:00 +27°C° 2 mm 2 m/S 746 mmHg 84%
    17:00 +27°C° 2 mm 2 m/S 746 mmHg 88%
    18:00 +26°C° 0,3 mm 1 m/S 746 mmHg 90%
    19:00 +25°C° 0,3 mm 1 m/S 746 mmHg 91%
    20:00 +24°C° 0,3 mm 1 m/S 746 mmHg 93%
    21:00 +23°C° 0,1 mm 1 m/S 746 mmHg 94%
    22:00 +23°C° 0,1 mm 1 m/S 746 mmHg 94%
    23:00 +22°C° 0,1 mm 1 m/S 746 mmHg 95%
    Mehr zeigen